User: anonymous   Login
Location: Unspecified
(0.0000°N, 0.0000°E)
Time: 06:54:46
(UTC+02:00)
Language:

Transit 2A - Orbit

View from above orbital plane
View from above orbital plane
View from above satellite
View from above satellite

Ground track
Ground track

The orbit data is extracted from the following two-line orbital elements,

1 00045U 60007A   16274.50995085  .00000093  00000-0  49906-4 0  9997
2 00045  66.6964 353.7326 0261268 223.6938 134.3219 14.33512882928341
Epoch (UTC): 30 September 2016 12:14:19
Eccentricity: 0.0261268
inclination: 66.6964°
perigee height: 593 km
apogee height: 967 km
right ascension of ascending node: 353.7326°
argument of perigee: 223.6938°
revolutions per day: 14.33512882
mean anomaly at epoch: 134.3219°
orbit number at epoch: 92834

The dashed part of the orbit path shows where the satellite is in the earth's shadow,  

DLR